Home   Weather   Pueblo   Past weeks

Flag for USA Past Weather in Pueblo, Colorado, USA — Yesterday and Last 2 Weeks

Now
32 °F

Chilly.


Feels Like: N/A
Forecast: 31 / 36 °F
Wind: N/A

Location: Pueblo Memorial Airport

Current Time: Apr 29, 2017 at 5:51:15 am

Latest Report: Apr 29, 2017 at 4:34 am


Visibility: N/A

Pressure: 30.02 "Hg (25.10 "Hg at 1430m altitude)

Humidity: 88%

Dew Point: 29 °F

Location of PuebloLocation

Past Weather in Pueblo — Graph

°F

Pueblo Temperature Yesterday

Maximum temperature yesterday: 57 °F (at 1:53 pm)
Minimum temperature yesterday: 33 °F (at 4:53 am)
Average temperature yesterday: 43 °F

High & Low Weather Summary for the Past Weeks

 TemperatureHumidityPressure
High85 °F (Apr 14, 1:53 pm)93% (Apr 17, 3:03 am)30.32 "Hg (Apr 17, 3:03 am)
Low32 °F (Apr 29, 2:53 am)4% (Apr 14, 4:53 pm)29.28 "Hg (Apr 27, 2:53 pm)
Average54 °F58%29.81 "Hg
* Reported Apr 14 4:53 am — Apr 29 4:34 am, Pueblo, Weather by CustomWeather, © 2017

Note: Actual official high and low records may vary slightly from our data, if they occured in-between our weather recording intervals... More about our weather records

Advertising

Pueblo Weather History for the Previous 24 Hours

Scroll right to see more
 ConditionsComfort  
Time TempWeatherWind HumidityBarometerVisibility
4:34 am
Sat, Apr 29
32 °FChilly.N/A88%30.02 "HgN/A
3:53 am32 °FLight snow. Ice fog.15 mph92%29.96 "Hg1 mi
3:36 am32 °FLight snow. Ice fog.17 mph92%30.02 "Hg1 mi
3:16 am32 °FLight snow. Ice fog.9 mph92%30.03 "Hg1 mi
2:53 am32 °FLight snow. Ice fog.15 mph92%29.98 "Hg1 mi
2:38 am33 °FLight snow. Fog.12 mph92%30.02 "Hg1 mi
12:53 am33 °FSnow. Fog.9 mph92%29.97 "Hg1 mi
11:53 pm
Fri, Apr 28
33 °FSnow. Fog.15 mph92%29.98 "Hg1 mi
10:53 pm33 °FSnow. Fog.17 mph92%29.93 "Hg1 mi
10:23 pm34 °FLight snow. Fog.12 mph92%29.97 "Hg1 mi
10:00 pm34 °FLight snow. Fog.21 mph92%29.94 "Hg1 mi
9:41 pm34 °FLight snow. Fog.21 mph92%29.92 "Hg2 mi
8:53 pm35 °FLight snow. Fog.18 mph88%29.88 "Hg2 mi
7:53 pm39 °FRain. Fog.22 mph89%29.81 "Hg3 mi
7:41 pm40 °FHeavy rain. Fog.22 mph86%29.83 "Hg2 mi
7:19 pm39 °FStrong thunderstorms. Fog.21 mph89%29.81 "Hg2 mi
6:53 pm44 °FThunderstorms. Mostly cloudy.15 mph79%29.76 "Hg6 mi
5:53 pm52 °FMostly cloudy.21 mph38%29.65 "Hg10 mi
4:53 pm57 °FPartly sunny.16 mph27%29.60 "Hg10 mi
3:53 pm57 °FScattered clouds.15 mph26%29.58 "Hg10 mi
2:53 pm57 °FScattered clouds.14 mph24%29.57 "Hg10 mi
1:53 pm57 °FSunny.18 mph22%29.57 "Hg10 mi
12:53 pm56 °FSunny.14 mph23%29.56 "Hg10 mi
11:53 am55 °FSunny.10 mph25%29.57 "Hg10 mi
10:53 am53 °FSunny.6 mph27%29.58 "Hg10 mi
9:53 am53 °FSunny.8 mph26%29.57 "Hg10 mi
8:53 am47 °FSunny.3 mph44%29.59 "Hg10 mi
7:53 am44 °FSunny.3 mph49%29.59 "Hg10 mi
6:53 am38 °FSunny.5 mph65%29.60 "Hg10 mi
5:53 am36 °FClear.10 mph70%29.59 "Hg10 mi
Weather by CustomWeather, © 2017

See weather overviewHow to use our weather pages